Temp
50 51 51 51 51 51 52 52 52 52 52 53 54 54 55 54 54 54 51 54 48 42 49 54 56 47 47 45 37 43 47 52 53 44 43 42 42 44 44 50 50 58 57 58 60 55 54 83 82 73 76 82 84 84
50 50 50 50 51 51 51 51 52 52 52 52 53 54 55 55 54 54 48 55 53 44 49 55 55 54 51 51 44 44 42 47 45 47 53 51 46 44 40 42 60 45 58 58 62 64 77 81 80 81 84 83 85 85
50 50 50 50 50 50 51 51 51 52 52 52 53 54 54 54 54 54 54 54 52 46 54 55 50 59 60 59 59 44 47 50 50 53 48 47 40 51 36 42 43 55 58 54 57 67 76 80 84 85 86 85 88 89
50 50 50 50 50 50 50 51 51 51 52 52 53 54 54 54 54 53 54 54 51 48 43 51 67 56 65 63 61 52 55 55 53 55 50 46 42 54 48 48 46 53 52 52 54 65 75 78 80 85 86 87 88 89
49 50 50 50 50 50 50 50 51 51 51 52 53 53 54 53 53 56 60 57 55 46 43 50 61 66 67 65 63 62 57 55 55 52 48 46 53 51 50 50 46 55 51 46 53 56 56 72 68 73 84 81 85 87
49 50 50 50 50 50 50 50 50 51 52 53 53 53 53 53 53 58 49 61 58 58 45 41 61 60 63 64 61 59 56 56 57 53 53 57 58 48 43 46 54 56 61 62 56 60 61 60 70 68 76 81 78 84
49 50 50 50 50 50 50 50 51 51 52 52 52 52 52 52 57 53 50 57 54 61 43 41 47 58 61 60 60 59 60 57 55 53 53 55 55 54 49 43 54 60 62 62 62 58 59 63 68 66 73 83 76 75
49 50 50 50 50 50 50 50 51 51 52 52 52 52 52 52 52 55 59 57 57 55 48 40 45 50 58 49 46 57 53 55 55 53 55 53 56 55 44 53 57 60 61 61 60 63 63 64 68 70 76 80 81 84
49 50 50 50 50 50 50 50 51 51 51 51 52 53 58 56 56 58 55 56 61 53 43 44 39 38 58 50 48 48 52 41 56 50 52 53 50 44 53 57 59 61 59 60 64 65 67 67 69 73 76 76 78 78
49 49 50 50 50 50 50 50 51 51 51 52 57 57 53 60 56 59 57 53 51 52 52 47 52 41 50 43 43 43 45 43 40 51 58 51 50 57 60 61 62 64 65 64 60 60 62 65 68 73 73 76 78 80
49 49 50 50 50 50 50 51 51 51 52 63 57 55 62 61 61 55 48 46 49 44 52 52 49 42 47 39 37 41 37 43 36 45 45 46 47 55 62 61 64 64 65 67 67 68 68 70 69 71 73 77 79 80
49 49 49 50 50 50 51 51 51 56 60 52 51 56 60 57 54 47 45 50 46 43 50 48 50 52 47 44 37 37 34 38 33 45 40 40 50 53 54 58 63 65 66 66 69 68 68 69 70 70 72 74 76 79
49 49 49 50 50 50 51 51 51 50 52 60 51 53 51 51 38 39 37 40 39 48 51 49 44 46 45 43 35 35 32 33 37 36 38 38 41 48 50 55 60 66 66 67 68 70 70 70 72 71 70 73 75 75
49 49 49 50 49 51 52 51 51 54 57 54 50 35 43 37 40 41 40 45 47 48 52 52 45 42 45 37 37 32 37 35 32 32 32 37 38 43 47 53 54 54 57 61 66 67 70 71 70 72 73 74 74 74
48 49 49 52 52 52 51 52 50 60 62 52 51 38 42 50 52 56 57 55 57 59 56 52 51 50 43 37 38 35 34 32 32 32 34 35 38 40 42 44 44 45 48 52 56 55 62 68 69 70 73 73 74 76
48 49 58 53 52 51 51 56 63 67 61 55 52 46 52 52 52 56 57 56 61 60 59 54 44 43 38 37 34 32 31 29 32 33 37 42 42 42 42 42 44 46 46 48 51 53 55 61 65 69 72 73 73 77
48 59 54 52 51 49 54 58 65 58 56 52 50 57 56 57 53 56 59 59 64 58 50 48 38 36 43 36 33 33 32 33 36 41 44 47 48 47 46 48 48 47 46 48 49 49 53 60 57 65 61 59 63 70
53 58 53 51 49 54 64 64 60 56 50 55 50 57 59 60 58 57 61 62 59 57 56 47 51 40 36 32 34 38 38 43 46 46 46 48 49 52 52 50 51 50 49 48 48 49 51 51 55 59 57 56 58 64
50 51 49 48 50 50 55 59 61 50 53 58 60 60 61 60 62 60 63 63 63 63 59 54 45 43 42 46 49 49 49 48 47 49 51 54 56 56 53 50 50 51 51 49 50 49 50 51 52 56 59 59 59 61
46 49 50 51 51 55 54 55 63 52 49 55 60 57 59 59 62 62 60 62 61 58 51 47 48 50 52 56 58 56 55 53 58 54 54 57 61 59 57 57 53 51 51 52 54 49 51 51 53 54 54 55 54 53
51 56 54 59 59 57 57 58 57 55 55 54 59 59 57 61 58 58 57 61 56 53 48 56 56 58 63 62 60 59 59 60 59 60 57 59 63 61 60 56 59 57 53 52 53 54 52 54 60 61 56 54 55 57
54 54 57 60 56 57 54 60 56 60 55 56 56 58 53 49 51 57 62 55 51 56 58 58 60 61 58 58 59 63 63 64 63 63 57 59 61 61 61 61 60 57 52 52 56 55 56 58 62 64 63 63 61 60
52 54 55 56 50 46 44 61 52 53 48 50 53 49 49 51 56 62 52 56 56 58 63 62 62 61 58 59 58 61 64 63 62 63 62 63 63 64 63 63 63 59 57 58 57 58 58 52 56 59 61 60 61 61
49 50 48 47 48 40 52 49 51 48 49 46 45 43 47 50 58 52 48 54 59 58 62 60 62 58 53 53 52 56 59 61 61 59 64 61 59 61 63 62 62 64 63 62 61 57 60 60 53 58 58 57 58 59
39 36 41 34 45 45 41 42 44 43 40 43 42 43 46 54 45 45 47 54 55 55 60 60 59 59 56 55 56 49 57 63 57 54 61 64 56 58 60 60 61 61 64 61 60 61 61 58 57 60 59 57 56 56
32 37 36 40 41 42 43 39 40 41 44 42 43 48 47 46 41 41 50 56 55 57 59 58 55 54 57 58 53 57 60 64 62 57 61 64 62 59 57 57 57 58 62 62 62 59 59 59 56 56 55 56 48 57
31 33 42 52 49 51 46 49 50 45 40 39 43 43 42 37 39 48 58 59 58 62 63 63 60 59 58 59 60 61 63 62 61 60 64 64 64 63 61 57 54 57 61 61 61 60 58 57 56 55 55 56 55 56
38 40 36 39 45 48 42 43 41 40 44 48 47 40 39 40 44 55 57 61 63 64 64 64 64 63 62 61 62 60 62 64 63 63 63 60 61 63 62 62 61 42 57 57 58 59 59 56 54 53 53 51 50 51
38 43 45 39 41 43 43 42 43 49 53 52 44 43 47 55 58 59 62 64 64 63 60 60 61 63 62 62 61 61 58 58 55 52 49 42 42 44 61 62 61 62 62 58 34 44 51 51 52 54 50 49 50 48
39 46 40 41 39 39 46 51 51 55 57 57 58 57 56 57 60 64 63 62 60 59 60 60 60 60 58 58 55 50 46 52 56 53 50 50 53 58 59 59 59 60 60 60 59 57 40 49 45 50 45 41 39 36
48 48 42 43 42 47 50 54 56 57 56 55 57 53 52 55 60 63 62 62 61 60 59 58 58 58 53 51 48 47 47 53 53 53 50 53 56 56 55 56 59 59 58 56 53 50 51 44 39 37 37 36 35 35
49 46 45 39 41 48 52 50 49 51 52 51 51 54 54 53 50 54 58 61 58 55 45 54 53 51 53 53 53 52 35 51 49 46 44 46 49 50 52 56 57 56 56 52 48 43 39 37 36 35 34 33 34 35
46 49 48 46 43 39 49 48 43 44 46 43 48 50 51 50 45 51 57 57 53 52 52 52 52 50 49 50 49 47 44 45 37 32 33 32 31 35 48 51 53 52 49 46 44 43 41 39 37 36 35 34 34 34
MSLP
1023.88 1023.07 1022.27 1021.33 1020.52 1019.73 1018.94 1018.22 1017.41 1016.65 1015.90 1015.15 1014.42 1013.72 1013.09 1012.67 1012.42 1012.16 1011.51 1011.17 1011.26 1010.23 1007.79 1006.73 1005.76 1006.33 1006.39 1005.99 1005.69 1004.37 1002.78 1001.30 1000.59 1001.03 1001.09 1000.73 999.87 999.29 997.38 994.42 993.42 990.84 990.05 989.46 989.01 988.11 986.84 985.77 985.62 985.48 986.37 987.06 987.18 987.40
1023.75 1022.95 1022.19 1021.23 1020.34 1019.56 1018.77 1018.00 1017.25 1016.45 1015.71 1014.99 1014.32 1013.73 1013.20 1012.79 1012.49 1012.25 1011.39 1010.84 1010.64 1010.49 1008.03 1006.86 1006.50 1006.78 1006.39 1006.47 1006.51 1005.63 1004.74 1003.16 1003.14 1001.72 1000.41 1000.24 999.96 999.31 999.39 996.91 995.24 994.98 992.61 991.61 989.55 988.44 987.42 986.66 986.22 986.12 986.73 987.24 987.07 987.11
1023.60 1022.70 1022.00 1021.12 1020.11 1019.27 1018.53 1017.78 1017.00 1016.20 1015.46 1014.76 1014.12 1013.49 1013.04 1012.63 1012.35 1012.13 1011.09 1010.60 1010.15 1009.12 1006.42 1005.17 1005.19 1004.87 1005.57 1005.53 1005.85 1005.89 1005.02 1004.64 1003.72 1003.49 1002.65 1001.57 1000.81 1000.47 1000.21 999.86 997.65 995.43 995.34 994.32 992.07 990.35 988.40 987.60 987.09 987.05 987.48 987.41 987.23 987.29
1023.39 1022.43 1021.67 1020.89 1019.89 1018.95 1018.22 1017.43 1016.65 1015.86 1015.11 1014.42 1013.77 1013.17 1012.69 1012.32 1012.00 1011.76 1010.70 1010.38 1010.30 1009.29 1007.29 1004.77 1003.75 1004.25 1003.72 1004.25 1004.60 1005.18 1004.47 1004.28 1003.80 1003.05 1002.63 1002.47 1002.18 1000.64 1000.26 999.99 999.37 998.96 998.41 995.82 993.29 991.60 989.82 988.89 988.59 988.03 987.85 987.87 987.62 987.72
1023.10 1022.17 1021.30 1020.56 1019.65 1018.62 1017.83 1017.03 1016.19 1015.38 1014.63 1013.88 1013.21 1012.64 1012.24 1011.88 1011.59 1011.01 1009.90 1009.67 1009.84 1009.92 1007.85 1005.19 1003.62 1002.82 1002.99 1003.08 1003.28 1003.48 1003.69 1003.74 1003.10 1002.41 1001.95 1001.53 1001.51 1001.49 1001.41 1000.96 1000.29 999.51 998.18 997.68 995.90 995.97 995.38 991.55 991.14 990.61 989.04 988.87 988.14 987.88
1022.79 1021.85 1020.93 1020.19 1019.32 1018.32 1017.40 1016.55 1015.64 1014.74 1013.97 1013.23 1012.53 1011.98 1011.68 1011.46 1011.20 1010.28 1009.49 1009.33 1009.41 1009.00 1008.36 1005.86 1003.63 1003.18 1002.96 1002.73 1002.78 1002.85 1003.05 1003.05 1002.55 1001.95 1001.08 1000.39 1000.57 1001.23 1000.87 999.21 998.53 998.17 997.57 998.24 998.09 998.20 996.81 995.57 993.37 993.96 991.26 989.36 989.21 988.34
1022.43 1021.54 1020.55 1019.78 1018.92 1017.95 1017.00 1016.11 1015.10 1014.11 1013.31 1012.46 1011.79 1011.34 1011.09 1010.92 1010.64 1010.02 1009.73 1009.36 1009.61 1009.08 1008.69 1006.83 1004.55 1003.69 1003.53 1003.27 1002.80 1002.45 1002.25 1002.12 1002.10 1001.51 1000.78 1000.23 999.97 1000.25 999.43 998.79 999.28 998.36 998.23 998.44 998.36 998.82 997.62 996.37 995.19 995.01 993.35 990.38 990.53 990.00
1022.10 1021.19 1020.24 1019.32 1018.51 1017.54 1016.53 1015.59 1014.61 1013.47 1012.60 1011.75 1011.17 1010.84 1010.63 1010.52 1010.36 1009.59 1009.07 1009.11 1009.30 1008.54 1008.47 1007.03 1005.00 1003.93 1004.06 1003.95 1003.80 1003.13 1002.49 1001.73 1001.28 1000.74 1000.19 999.87 999.46 999.25 998.92 998.15 998.27 997.99 998.03 998.14 998.93 998.58 997.86 997.21 996.16 995.51 993.70 990.52 990.19 989.21
1021.69 1020.78 1019.85 1018.94 1018.11 1017.15 1016.08 1015.13 1014.14 1013.04 1012.04 1011.03 1010.64 1010.43 1010.09 1009.78 1008.82 1008.56 1008.99 1008.96 1008.66 1008.78 1007.82 1006.75 1005.45 1004.60 1004.10 1004.45 1004.81 1004.27 1003.49 1002.58 1001.03 1000.00 999.46 999.18 998.13 997.57 997.17 997.41 997.19 996.74 996.75 997.49 997.30 997.36 996.94 996.11 995.66 994.42 993.37 992.45 990.88 990.34
1021.24 1020.40 1019.46 1018.54 1017.72 1016.79 1015.68 1014.75 1013.76 1012.67 1011.56 1010.18 1009.82 1009.21 1008.34 1008.19 1008.44 1008.52 1008.20 1007.86 1007.76 1007.46 1006.99 1005.77 1005.11 1005.07 1005.12 1005.38 1005.14 1004.76 1003.94 1002.76 1001.39 999.56 998.57 997.93 997.06 996.35 995.58 996.90 996.97 996.72 996.66 997.09 996.69 995.86 995.74 995.07 994.88 993.94 993.16 992.36 991.48 990.61
1020.83 1019.99 1019.08 1018.14 1017.30 1016.42 1015.33 1014.50 1013.65 1012.37 1010.61 1009.82 1009.50 1009.14 1008.42 1007.97 1007.77 1007.57 1007.35 1007.04 1006.60 1006.29 1005.46 1004.78 1004.98 1004.88 1005.16 1005.70 1005.91 1005.81 1004.92 1003.44 1002.01 1000.12 999.26 998.15 996.84 996.00 995.30 994.32 995.19 995.65 995.29 994.90 995.23 995.05 994.67 994.31 994.35 993.78 993.16 992.36 991.82 991.52
1020.46 1019.54 1018.64 1017.76 1016.90 1016.08 1015.07 1014.15 1013.57 1012.50 1011.44 1012.18 1011.99 1010.61 1008.94 1007.66 1007.23 1007.30 1006.76 1006.05 1006.10 1005.53 1005.05 1004.53 1004.12 1003.88 1004.50 1005.78 1006.30 1006.54 1005.93 1004.79 1002.91 1002.00 1000.75 999.16 997.83 997.80 997.03 996.21 995.00 994.84 994.76 994.59 994.49 994.57 994.57 994.15 994.08 993.88 993.27 992.86 992.41 991.71
1020.03 1019.05 1018.13 1017.30 1016.48 1015.58 1014.70 1013.90 1013.17 1012.74 1012.01 1010.90 1011.36 1009.58 1008.73 1008.26 1008.20 1007.64 1006.92 1006.93 1006.55 1005.86 1004.93 1004.50 1004.40 1004.61 1004.86 1005.72 1006.50 1006.61 1006.17 1005.18 1004.51 1003.00 1001.31 1001.02 1001.02 1000.09 998.94 997.30 995.54 995.09 994.69 994.02 993.82 994.01 994.22 993.84 993.18 992.50 992.31 992.50 992.59 992.42
1019.56 1018.50 1017.59 1016.80 1016.02 1015.18 1014.28 1013.36 1012.74 1012.01 1011.56 1010.04 1009.88 1009.81 1009.29 1009.14 1008.68 1008.08 1007.52 1006.68 1006.47 1005.85 1004.67 1004.10 1004.45 1004.87 1004.93 1005.82 1006.05 1006.18 1005.82 1005.50 1004.54 1003.57 1002.75 1002.54 1002.06 1001.17 1000.18 998.73 997.60 996.43 995.82 995.17 994.61 994.48 993.92 993.64 993.80 993.54 993.40 992.68 992.24 991.85
1019.19 1017.90 1016.89 1015.98 1015.47 1014.63 1013.73 1012.81 1012.08 1011.62 1009.94 1009.73 1009.82 1009.61 1009.20 1008.48 1007.53 1006.65 1005.97 1005.29 1004.67 1003.93 1003.52 1003.54 1003.80 1004.17 1005.06 1005.99 1006.35 1006.49 1005.98 1005.65 1005.40 1004.87 1004.13 1003.42 1003.08 1001.90 1000.96 1000.23 999.64 999.00 998.24 996.92 995.91 995.15 994.29 993.41 992.98 992.68 992.67 992.82 992.83 992.65
1018.85 1017.12 1015.64 1015.11 1014.87 1014.33 1013.32 1012.03 1010.71 1009.87 1009.72 1009.66 1009.39 1009.25 1008.43 1007.72 1006.84 1005.98 1005.31 1004.71 1004.11 1003.55 1003.39 1003.81 1004.53 1004.91 1005.92 1006.68 1006.91 1007.16 1007.04 1006.68 1006.12 1005.41 1004.35 1002.99 1002.92 1002.31 1001.64 1001.02 1000.25 999.47 998.50 997.37 996.51 996.51 995.74 994.22 993.06 992.25 992.30 992.30 991.98 991.66
1018.69 1016.54 1015.99 1015.62 1014.97 1013.99 1012.60 1012.24 1009.94 1009.59 1009.34 1009.23 1008.83 1008.01 1007.58 1006.74 1006.73 1005.91 1005.17 1004.62 1004.14 1003.56 1003.55 1004.53 1005.39 1006.04 1006.67 1006.79 1006.97 1007.41 1007.40 1006.93 1005.73 1004.55 1003.53 1002.73 1002.25 1001.69 1001.31 1000.75 1000.15 999.48 998.67 998.05 997.30 996.32 995.50 993.67 993.79 992.35 992.72 992.96 992.74 990.49
1018.03 1016.65 1016.26 1015.86 1015.43 1013.56 1011.32 1010.67 1009.96 1009.53 1009.16 1008.42 1008.05 1007.17 1006.77 1006.58 1005.89 1005.97 1005.10 1004.70 1004.42 1003.79 1003.70 1004.56 1005.47 1006.07 1006.52 1006.90 1006.62 1006.69 1006.56 1005.92 1005.05 1003.96 1003.04 1002.50 1001.70 1001.23 1000.96 1000.67 1000.35 999.93 999.39 998.19 998.09 996.41 994.76 994.78 994.56 994.28 994.65 994.29 993.27 993.20
1017.90 1017.08 1016.30 1015.79 1015.75 1015.21 1011.95 1010.31 1009.99 1009.30 1008.55 1007.78 1007.16 1006.93 1006.42 1006.17 1005.94 1006.16 1005.14 1004.65 1004.36 1004.12 1004.10 1004.44 1005.11 1005.36 1005.79 1005.86 1005.18 1005.06 1004.79 1004.46 1003.88 1003.17 1002.51 1001.69 1001.05 1000.70 1000.81 1000.91 1000.52 1000.12 999.57 998.88 998.03 997.07 996.99 996.00 995.97 995.27 994.45 994.91 995.00 994.57
1016.90 1015.81 1015.01 1014.71 1015.04 1013.70 1011.38 1010.22 1009.57 1009.23 1008.52 1007.99 1007.09 1006.69 1006.14 1005.86 1005.51 1005.47 1005.43 1004.63 1004.41 1004.41 1004.78 1005.04 1005.03 1004.88 1004.52 1004.53 1004.24 1004.10 1004.06 1003.62 1002.26 1001.93 1001.36 1001.24 1000.47 1000.15 1000.22 999.99 1000.28 1000.39 1000.05 999.36 998.56 998.10 998.18 997.64 997.37 996.59 996.34 995.98 996.13 996.23
1016.03 1014.55 1013.66 1013.41 1013.35 1013.07 1011.34 1009.52 1008.56 1008.45 1008.10 1007.68 1006.99 1006.38 1005.97 1005.70 1005.41 1005.02 1005.09 1005.17 1005.01 1004.78 1005.11 1004.59 1004.45 1004.34 1003.91 1003.94 1004.09 1003.82 1003.42 1002.67 1002.09 1001.72 1001.61 1000.72 1000.20 1000.66 1000.54 1000.95 1000.08 1000.25 1000.26 1000.01 999.59 999.32 998.58 998.24 997.86 997.57 997.44 997.34 997.38 997.29
1015.37 1014.38 1013.61 1012.62 1012.23 1011.34 1010.72 1009.62 1008.86 1008.12 1007.98 1007.31 1006.79 1006.30 1006.00 1005.96 1005.72 1004.98 1004.77 1004.99 1005.49 1005.11 1004.86 1004.45 1004.03 1003.93 1004.39 1004.15 1003.86 1003.38 1003.03 1002.48 1002.37 1001.61 1001.53 1001.13 1000.79 1000.56 1000.56 1000.75 1000.56 1000.69 1000.68 1000.56 1000.04 999.78 999.78 999.41 998.66 997.81 997.49 997.37 997.13 997.25
1015.05 1014.31 1013.51 1012.43 1011.76 1011.18 1010.20 1008.76 1008.55 1008.23 1007.67 1007.27 1006.99 1006.78 1006.36 1005.84 1005.31 1004.87 1004.94 1004.79 1004.98 1005.31 1004.60 1004.38 1004.41 1004.61 1004.99 1004.71 1004.65 1003.86 1003.36 1002.96 1002.54 1002.10 1002.09 1001.84 1001.55 1001.20 1001.24 1001.12 1000.94 1000.84 1000.71 1000.55 1000.51 1000.27 1000.10 999.55 999.18 999.02 998.51 998.34 998.19 998.55
1014.78 1014.16 1012.74 1011.65 1011.19 1010.68 1009.72 1008.79 1008.78 1008.57 1007.99 1007.71 1007.50 1007.14 1006.60 1005.98 1005.22 1005.11 1004.72 1004.42 1004.45 1005.15 1004.45 1004.50 1004.26 1004.63 1005.24 1005.37 1005.62 1004.73 1004.23 1004.04 1003.45 1003.28 1002.44 1002.56 1002.62 1002.18 1001.99 1002.11 1001.97 1001.59 1001.29 1001.26 1000.82 1000.61 1000.52 1000.44 1000.37 1000.30 1000.12 999.77 999.60 999.47
1014.91 1013.72 1012.97 1011.66 1010.64 1009.87 1009.43 1008.87 1008.64 1008.54 1008.16 1007.88 1007.66 1007.32 1006.64 1005.87 1005.78 1005.26 1004.55 1004.08 1004.41 1005.01 1004.32 1004.36 1004.83 1004.85 1004.96 1005.22 1005.26 1005.49 1004.72 1003.66 1003.95 1004.03 1003.10 1002.63 1003.40 1002.99 1002.76 1003.00 1002.85 1002.85 1002.55 1002.27 1001.94 1001.56 1001.50 1001.60 1001.29 1001.13 1001.14 1001.05 1000.89 1000.87
1014.31 1012.51 1011.75 1010.23 1009.40 1008.86 1008.38 1008.12 1008.08 1007.88 1007.55 1007.53 1007.36 1007.26 1006.88 1006.26 1005.87 1004.98 1004.12 1003.62 1004.32 1004.42 1004.38 1004.62 1005.20 1005.38 1005.26 1005.20 1005.60 1004.82 1004.35 1004.06 1003.88 1004.19 1003.81 1003.39 1003.36 1003.45 1003.30 1003.24 1003.21 1003.62 1003.60 1003.12 1002.55 1002.55 1002.39 1002.48 1002.67 1002.48 1002.39 1002.13 1001.93 1001.87
1012.96 1011.23 1010.04 1009.01 1008.04 1007.55 1007.53 1007.08 1007.06 1007.02 1007.18 1007.13 1006.94 1006.89 1006.79 1006.21 1005.20 1004.40 1003.84 1004.24 1004.27 1004.36 1004.33 1004.57 1004.97 1004.99 1005.15 1005.24 1005.23 1005.02 1004.74 1004.56 1004.46 1004.54 1004.28 1004.15 1004.11 1004.22 1004.10 1004.34 1004.62 1004.97 1004.50 1004.27 1003.77 1003.57 1003.67 1003.56 1003.62 1003.71 1003.70 1003.64 1003.83 1003.74
1010.93 1009.63 1008.76 1008.17 1007.71 1007.21 1006.97 1006.80 1006.78 1006.66 1006.19 1006.15 1006.03 1005.87 1005.65 1005.36 1004.44 1004.15 1004.20 1004.26 1004.09 1004.37 1004.51 1004.70 1004.78 1004.73 1004.59 1005.17 1005.30 1005.29 1005.03 1004.73 1004.56 1004.56 1004.52 1004.83 1005.05 1004.79 1004.71 1004.72 1005.14 1005.31 1005.21 1005.24 1005.03 1004.75 1004.70 1004.82 1004.86 1004.84 1004.86 1005.13 1005.55 1006.07
1009.13 1008.09 1007.89 1007.50 1007.21 1006.69 1006.25 1005.98 1005.79 1005.15 1004.89 1004.52 1004.55 1004.71 1004.61 1004.25 1003.89 1003.67 1003.68 1003.77 1003.98 1004.04 1004.06 1004.09 1004.12 1004.40 1004.48 1004.64 1005.22 1005.62 1005.95 1005.64 1005.17 1005.15 1005.36 1006.27 1006.64 1007.14 1005.37 1005.15 1005.03 1004.81 1004.80 1005.34 1005.83 1005.80 1006.25 1006.53 1006.40 1006.21 1006.59 1006.91 1007.12 1007.48
1007.45 1007.31 1006.86 1006.19 1005.85 1005.32 1004.96 1004.87 1004.44 1004.12 1003.82 1003.64 1003.47 1003.30 1003.36 1003.53 1003.57 1003.55 1003.66 1003.73 1003.75 1003.76 1003.87 1004.15 1004.40 1004.55 1004.44 1004.55 1005.16 1006.59 1007.28 1007.45 1006.71 1006.64 1006.46 1006.23 1006.15 1005.99 1005.97 1005.93 1005.62 1005.36 1005.46 1005.40 1005.86 1006.16 1006.59 1006.85 1007.21 1007.17 1007.58 1007.93 1008.22 1008.29
1005.82 1005.46 1005.37 1005.20 1004.83 1004.71 1004.64 1004.38 1003.77 1003.39 1003.39 1003.11 1003.00 1003.03 1003.07 1003.09 1003.01 1003.17 1003.33 1003.50 1003.84 1004.02 1004.23 1004.33 1004.43 1004.81 1005.56 1006.11 1006.61 1007.26 1007.76 1007.90 1007.82 1007.75 1008.22 1007.66 1007.13 1006.89 1006.87 1006.59 1006.19 1006.06 1006.17 1006.44 1007.06 1007.53 1007.48 1008.26 1008.84 1009.17 1009.29 1009.47 1009.61 1009.57
1004.33 1003.89 1003.79 1003.97 1004.15 1004.21 1004.09 1003.74 1003.26 1002.96 1002.83 1002.68 1002.74 1002.73 1002.67 1002.62 1002.71 1003.25 1004.05 1003.91 1004.06 1004.35 1004.99 1005.06 1005.52 1006.28 1006.88 1007.26 1007.60 1007.98 1008.98 1008.51 1008.88 1009.38 1009.64 1009.25 1008.76 1008.47 1008.04 1007.23 1006.91 1006.90 1006.83 1007.57 1008.40 1008.98 1009.39 1009.56 1009.71 1009.93 1010.27 1010.47 1010.50 1010.53
1003.54 1003.16 1002.95 1003.01 1003.24 1003.77 1003.44 1003.48 1003.48 1003.30 1003.24 1003.11 1003.11 1003.07 1002.89 1002.88 1003.09 1003.84 1004.96 1005.32 1005.59 1005.66 1006.08 1006.66 1007.26 1007.89 1008.23 1008.34 1008.59 1008.97 1009.23 1009.98 1010.51 1010.75 1010.87 1010.77 1010.57 1009.99 1008.93 1008.55 1008.06 1008.14 1008.27 1008.66 1009.32 1009.79 1010.06 1010.35 1010.60 1010.87 1011.09 1011.21 1011.25 1011.31
Wind_Speed
23 24 24 23 23 22 21 21 21 21 21 22 22 20 16 12 9 5 6 5 3 4 15 18 13 9 9 8 3 11 9 10 6 8 6 6 5 6 9 16 11 14 15 12 15 13 11 13 17 21 7 6 6 14
23 24 24 23 23 23 22 21 21 21 21 21 21 18 15 11 9 8 5 4 3 4 12 19 16 13 13 13 2 5 8 9 7 6 7 4 7 4 10 7 10 8 3 10 8 11 3 6 8 7 8 7 7 14
25 24 25 24 23 23 23 23 22 22 21 21 20 18 16 13 12 10 7 7 4 4 11 5 8 15 12 13 10 4 1 5 5 6 5 3 4 1 1 8 10 7 13 7 9 17 14 11 8 7 10 8 7 9
25 25 25 25 24 24 24 24 24 22 21 21 20 18 16 15 12 11 7 5 4 5 5 6 3 4 14 14 16 14 8 5 8 8 4 4 3 8 6 10 9 11 10 14 13 11 11 2 9 6 9 8 10 8
24 24 25 26 25 24 26 26 24 23 22 21 20 18 17 15 13 11 9 4 4 4 6 10 16 4 3 5 8 8 6 8 8 8 6 7 7 5 5 5 10 9 4 4 5 19 13 13 17 28 13 3 3 9
25 24 25 27 26 25 26 26 24 24 23 22 21 19 16 13 10 7 3 1 3 3 5 6 7 5 10 5 8 10 7 8 9 8 8 4 8 2 3 7 10 10 17 13 13 15 19 22 14 20 20 4 10 6
25 26 25 27 27 25 25 26 26 25 24 23 20 17 13 8 6 4 5 6 8 8 2 5 5 3 10 8 8 8 10 7 8 10 9 11 8 6 7 13 14 11 15 10 7 17 22 21 8 9 28 11 10 13
26 26 26 27 27 26 25 26 26 26 25 23 18 13 10 8 9 6 1 3 4 4 3 4 5 4 3 3 5 6 6 6 7 9 11 9 11 10 12 16 14 15 14 16 12 18 21 19 24 9 20 10 7 1
26 27 27 27 28 26 25 25 26 27 25 23 17 12 4 6 3 1 4 6 5 4 3 3 4 4 4 3 2 3 2 4 5 10 11 9 10 12 15 17 19 16 12 16 17 18 24 20 20 21 15 10 8 6
26 27 27 27 28 27 25 24 25 27 27 23 8 5 1 3 2 5 5 3 4 5 5 6 1 5 4 0 3 3 4 4 3 7 8 11 13 18 21 19 17 17 15 14 17 17 17 17 16 21 14 13 9 9
26 28 28 28 28 28 24 23 24 27 15 4 5 4 7 5 4 1 3 3 3 4 4 4 7 9 3 3 2 3 4 4 4 3 3 5 12 13 19 22 19 18 21 18 14 16 18 14 15 17 17 13 12 11
27 28 28 28 27 27 24 22 21 13 7 6 5 7 5 4 1 4 5 3 2 5 6 9 12 9 2 3 1 1 2 3 5 8 3 5 6 15 16 20 21 19 21 19 16 17 12 15 16 17 15 12 13 14
28 28 28 28 27 25 23 21 21 17 15 5 4 4 4 4 6 6 7 5 6 8 9 12 11 6 2 3 1 1 3 4 6 4 4 4 10 14 14 16 12 13 20 19 18 18 17 18 17 18 18 16 14 13
27 29 29 27 25 20 22 22 19 12 6 2 5 7 5 4 4 4 6 8 5 7 12 11 5 2 2 1 1 3 1 3 3 4 5 5 13 15 14 13 12 13 15 14 15 18 19 18 18 20 19 17 16 16
26 31 29 18 16 24 26 25 20 5 3 3 3 4 3 3 8 6 8 8 7 8 8 5 1 4 5 3 4 4 6 5 4 5 5 5 13 10 12 12 13 12 10 8 10 9 16 19 17 17 16 17 20 19
26 29 5 22 26 28 30 20 8 4 2 3 2 4 8 8 9 8 9 10 10 9 8 6 5 5 4 4 4 5 8 4 4 4 10 7 1 5 7 9 9 10 11 8 8 9 14 20 20 17 19 20 23 24
22 6 22 24 28 29 23 6 4 1 3 3 4 3 5 7 9 10 9 9 10 7 6 4 6 4 3 5 5 4 5 6 8 9 9 7 3 4 6 4 8 13 15 11 11 14 15 9 10 15 7 8 5 9
9 16 23 25 21 15 7 5 3 3 3 6 3 7 6 6 4 6 7 8 7 9 7 3 2 4 4 5 4 3 4 5 7 10 6 1 4 3 5 8 9 5 10 12 11 10 16 15 10 7 9 9 4 12
17 18 24 22 8 4 6 3 1 4 4 7 6 5 7 5 4 6 7 7 6 8 4 4 4 3 1 4 5 5 4 3 4 4 6 10 7 10 7 5 6 7 8 9 9 11 10 12 9 9 7 8 7 9
29 25 18 13 5 5 5 4 3 4 3 5 9 5 7 5 6 2 4 6 6 5 5 4 4 5 4 2 4 6 7 11 4 4 4 2 3 6 7 8 6 4 3 6 6 10 7 5 3 6 7 8 8 8
15 2 9 6 5 8 6 5 4 2 4 4 7 8 6 5 7 6 4 4 4 1 1 4 4 6 6 2 6 4 7 9 6 9 9 8 8 13 10 7 8 10 7 6 8 7 6 5 7 5 4 5 4 4
8 7 6 5 4 4 5 6 4 4 5 8 8 7 5 3 8 7 3 2 5 4 4 6 6 8 10 15 1 3 6 11 8 7 9 9 9 9 9 10 9 7 7 9 7 7 6 6 6 8 9 8 8 7
11 3 5 5 4 3 8 6 4 4 4 4 4 4 4 4 6 5 1 5 4 3 3 4 7 10 10 10 17 15 10 7 5 6 7 9 10 8 8 8 8 7 9 6 4 9 9 12 12 10 7 5 7 6
2 4 5 5 8 5 4 4 4 3 4 1 3 4 4 5 5 2 7 7 1 2 2 3 6 2 2 3 3 8 9 7 9 10 6 8 8 8 8 8 9 10 9 9 7 4 6 6 7 8 10 10 7 4
5 6 5 7 6 6 5 4 5 5 5 6 5 5 4 3 2 4 8 8 4 6 1 4 6 6 5 4 1 5 14 4 5 4 8 7 5 3 6 6 8 10 10 7 8 10 9 7 7 9 9 9 9 15
8 6 8 7 5 6 7 5 7 8 6 7 5 3 2 3 4 6 6 5 3 4 3 3 2 4 6 5 5 8 6 7 7 5 8 8 7 7 6 7 7 8 9 10 9 11 10 11 9 12 12 14 13 12
8 8 8 7 7 6 5 6 5 4 3 5 3 4 2 4 5 6 3 4 3 3 5 4 3 5 3 5 6 6 6 6 4 4 6 5 5 5 6 7 7 5 7 9 10 10 12 10 8 7 8 9 13 13
8 6 12 7 9 8 12 9 5 5 6 5 5 6 5 7 5 2 3 3 5 2 4 5 6 7 5 0 4 6 8 7 7 3 5 5 7 4 4 5 4 1 5 7 9 10 9 10 10 11 12 12 11 12
7 5 8 10 13 9 10 9 8 8 8 9 9 8 9 8 8 6 4 4 4 6 6 7 5 5 6 6 2 2 6 8 8 7 7 7 7 8 5 5 5 5 6 7 6 8 12 11 11 10 12 10 9 10
10 10 9 11 13 11 10 7 9 10 9 10 11 9 9 9 8 4 5 6 7 7 6 4 5 8 9 7 1 5 6 8 6 6 6 5 4 4 6 6 6 6 5 6 7 7 7 9 10 10 10 9 7 6
5 10 12 11 12 8 10 11 10 11 10 10 8 7 7 9 8 7 6 6 4 5 5 6 5 7 7 6 6 2 2 3 5 6 9 7 7 6 6 6 5 5 5 7 8 9 8 9 8 9 10 10 11 9
9 13 10 12 11 9 9 10 10 11 11 10 11 11 10 10 9 3 6 3 4 5 1 3 7 6 6 4 4 4 2 3 9 9 11 8 9 9 9 6 5 4 4 9 8 8 8 8 7 8 8 9 10 11
8 10 10 8 4 2 6 8 6 9 8 6 10 11 12 13 11 4 4 6 7 8 9 8 7 7 7 7 6 5 7 8 9 7 6 7 9 10 8 9 6 10 10 9 9 7 8 9 9 10 10 10 11 11
Wind_Direction
337 336 336 338 337 333 330 330 330 333 335 339 343 348 352 350 354 312 294 277 256 271 286 276 288 308 284 301 302 315 305 244 224 225 204 189 246 347 299 304 318 245 179 209 220 227 220 221 220 213 145 251 248 193
336 337 332 333 333 331 329 327 326 329 331 334 337 340 347 342 346 328 296 308 246 231 282 292 289 276 236 272 223 302 337 338 15 293 218 247 247 105 345 313 244 280 47 261 227 212 234 302 242 116 149 230 232 186
334 333 328 327 329 328 326 327 327 325 324 324 327 331 331 320 324 324 303 316 295 265 283 289 267 211 210 224 192 288 6 311 310 353 326 335 331 277 197 264 319 282 11 307 357 274 229 238 265 187 202 212 164 167
329 330 326 323 326 327 326 326 325 323 322 320 317 323 322 320 313 312 292 325 293 285 281 309 294 198 200 204 207 206 251 241 268 287 292 285 269 304 284 248 274 306 335 328 305 318 310 272 316 179 169 182 193 193
326 326 326 323 324 327 328 326 322 319 319 318 319 316 316 314 308 289 274 248 248 321 313 306 296 17 306 257 240 246 243 276 280 273 245 261 262 271 257 298 266 270 317 302 344 334 327 294 8 330 215 120 242 173
325 325 327 324 323 327 329 326 319 317 317 319 318 312 310 306 304 298 294 356 289 5 313 309 320 342 354 270 249 249 238 245 271 271 281 279 307 187 296 269 260 270 270 253 281 293 305 311 15 305 286 113 359 253
324 323 326 324 323 326 329 323 317 315 318 319 316 309 304 281 266 285 306 339 334 305 249 282 299 328 341 299 291 281 277 233 236 263 264 272 240 220 256 256 276 295 289 271 238 291 289 300 266 250 308 142 118 294
323 322 325 325 323 325 325 321 318 317 322 320 319 315 299 279 267 267 194 248 290 271 255 277 285 335 351 337 315 338 293 281 260 260 257 254 256 239 238 257 267 265 254 268 273 266 259 280 295 277 269 318 283 217
324 323 324 325 324 324 324 322 320 321 321 314 311 302 262 223 213 341 186 235 227 265 285 258 286 310 343 43 300 268 266 263 270 244 240 255 255 234 240 242 244 252 264 249 256 241 263 241 255 265 280 275 323 332
325 324 323 325 325 322 322 322 323 321 315 301 279 216 259 36 274 274 194 204 196 204 228 266 272 292 293 10 293 283 214 255 261 256 252 239 248 261 257 250 262 269 242 227 242 247 275 275 274 241 268 283 286 304
324 324 323 325 326 321 319 323 327 323 284 328 340 320 341 305 264 272 282 246 214 241 230 301 318 303 158 240 231 312 318 306 262 273 281 235 244 253 246 254 248 244 264 250 233 250 235 254 255 275 253 268 280 265
322 322 322 323 324 319 313 323 328 315 357 334 295 282 263 263 270 297 306 282 279 327 325 334 332 325 101 115 161 206 276 271 264 341 240 248 9 360 340 322 237 237 246 250 234 225 264 272 263 277 284 279 280 274
321 320 322 322 320 315 313 322 321 304 284 230 232 280 348 305 12 335 334 355 320 324 320 327 322 328 69 91 137 218 241 256 330 269 259 61 340 328 338 315 331 238 238 252 247 235 212 243 251 266 276 276 276 283
320 318 320 322 312 306 319 322 319 322 273 310 334 328 360 2 298 335 312 319 280 264 304 317 308 285 273 78 247 277 303 279 268 291 338 332 326 336 318 336 316 334 327 306 250 249 248 234 235 246 234 262 278 281
320 315 317 309 317 334 326 320 308 278 285 334 344 321 350 284 276 1 343 348 341 334 342 343 343 332 32 0 13 323 331 337 349 307 293 296 320 329 346 12 11 9 348 335 344 321 295 251 240 244 236 233 240 242
323 309 353 357 347 333 320 313 261 253 39 276 274 309 325 1 337 4 349 351 345 353 10 22 11 7 0 349 341 13 324 334 297 289 291 295 103 56 52 37 9 3 360 343 13 337 290 261 245 238 224 238 235 237
311 266 341 337 333 319 306 279 283 294 267 287 268 242 269 330 10 338 348 352 343 336 30 37 16 356 337 337 347 2 334 289 295 332 336 322 343 265 253 313 46 24 2 360 6 345 325 305 321 219 120 354 47 113
291 313 320 325 327 299 284 214 289 270 263 254 272 306 348 329 338 335 352 357 344 338 360 64 81 9 16 337 321 296 242 265 315 331 340 350 353 7 31 7 24 21 11 8 4 296 31 9 74 114 97 89 4 92
303 297 302 298 295 308 278 265 278 273 267 318 297 325 317 324 354 308 337 342 354 336 354 16 9 355 332 248 332 340 300 256 273 303 327 346 48 48 97 83 339 33 6 342 347 14 13 357 12 22 46 74 56 43
294 289 280 273 200 266 274 263 216 236 267 275 299 285 293 305 312 335 284 325 13 356 25 357 344 320 354 349 340 340 341 306 335 345 14 36 31 76 55 44 78 113 46 334 12 41 10 7 359 46 35 39 44 31
295 236 295 294 232 221 278 279 279 284 257 249 291 301 308 319 314 313 336 71 342 272 30 285 7 306 339 295 77 305 320 317 352 41 0 7 32 59 17 44 25 29 47 34 43 31 29 21 37 79 94 67 61 71
263 310 297 253 250 243 248 247 239 285 272 260 275 285 295 287 269 278 299 333 159 270 327 329 328 349 9 347 132 252 353 350 14 5 8 36 26 27 51 41 17 44 47 14 19 50 25 2 20 51 63 67 69 54
271 255 239 242 238 246 259 270 244 272 273 281 342 314 283 271 284 290 37 281 193 265 295 340 332 31 2 345 332 349 4 349 346 359 32 10 10 39 41 28 42 39 22 38 24 31 21 5 19 19 27 45 57 59
213 250 253 239 205 244 243 236 214 225 287 306 263 266 283 257 278 296 277 243 348 308 269 355 320 84 132 270 347 337 345 2 348 353 2 49 353 20 35 46 21 18 39 14 12 16 34 48 46 31 29 17 19 55
267 254 225 238 265 202 236 219 211 211 241 212 245 257 269 292 308 280 287 282 113 248 76 28 337 334 345 352 59 192 269 6 67 270 321 26 154 269 65 11 59 28 8 22 17 11 46 44 32 32 47 31 33 28
234 233 213 214 227 208 202 209 204 221 224 220 231 246 250 269 233 252 250 270 75 321 75 50 341 340 320 356 6 323 341 350 16 5 341 357 22 6 12 6 32 38 13 350 7 34 19 61 52 42 32 25 27 53
238 239 222 240 246 223 225 229 238 208 187 213 232 245 258 249 247 240 51 43 8 359 16 349 346 305 310 316 326 319 328 319 353 357 337 3 35 8 16 29 30 12 15 4 351 34 18 18 51 62 49 40 44 43
236 244 230 233 243 249 241 240 206 225 227 218 222 192 197 206 243 43 10 194 215 245 310 315 309 295 284 288 294 324 318 315 313 278 307 15 3 9 13 88 61 268 39 40 12 24 12 40 41 51 62 59 54 44
230 231 234 232 233 229 230 217 225 232 231 229 207 216 238 255 276 293 267 264 281 285 285 278 296 322 296 217 156 335 344 331 344 344 34 59 45 313 334 20 18 24 15 99 57 56 62 53 38 51 52 54 52 67
236 223 234 233 216 221 221 219 234 239 242 242 254 242 224 221 245 301 304 288 276 282 293 309 310 306 305 300 173 77 37 320 5 3 357 13 37 35 17 2 6 16 17 13 14 70 81 47 39 44 48 49 45 52
240 201 221 225 228 233 241 252 264 252 248 259 260 260 250 251 247 246 255 276 305 297 300 303 319 14 18 12 26 81 117 23 30 38 11 332 342 15 5 337 356 15 30 42 45 14 56 59 63 61 59 58 52 51
235 232 215 211 225 241 254 269 266 249 247 241 236 243 252 255 255 340 36 338 277 295 44 11 37 63 59 77 80 90 166 41 44 28 13 357 356 354 333 329 1 11 58 84 62 65 61 60 60 63 64 61 62 61
248 259 245 246 226 294 243 244 258 264 277 285 282 282 281 282 278 96 66 43 36 39 45 53 64 60 54 53 61 74 67 78 89 80 58 33 17 356 5 6 8 32 45 69 75 78 82 86 84 81 76 70 64 58